Regional Weather Roundup
Issued by NWS

Home | Current Version | Previous Version | Graphics & Text | Print | Product List | Glossary On
Versions: 1 2 3 4 5 6 7 8 9 10 11 12 13 14 15 16 17 18 19 20 21 22 23 24 25 26 27 28 29 30 31 32 33 34 35 36 37 38 39 40 41 42 43 44 45 46 47 48 49 50
000
ASUS43 KBIS 181220
RWRND

NORTH DAKOTA REGIONAL WEATHER ROUNDUP
NATIONAL WEATHER SERVICE BISMARCK ND
700 AM CDT SAT APR 18 2015

NOTE: "FAIR" INDICATES FEW OR NO CLOUDS BELOW 12,000 FEET WITH NO
SIGNIFICANT WEATHER AND/OR OBSTRUCTIONS TO VISIBILITY.


NDZ001>003-009>011-017-181300-
NORTHWEST NORTH DAKOTA

CITY           SKY/WX    TMP DP  RH WIND       PRES   REMARKS
WILLISTON      CLEAR     45  26  47 CALM      29.99F
6HR MIN TEMP:  42; 6HR MAX TEMP:  51;

MINOT          FAIR      31  25  78 E6        30.05S
MINOT AFB      CLEAR     29  27  92 SE3       30.04F
$$

NDZ018>021-031>035-040>046-181300-
SOUTHWEST NORTH DAKOTA

CITY           SKY/WX    TMP DP  RH WIND       PRES   REMARKS
BISMARCK       PTCLDY    35  27  72 NE7       30.06F
6HR MIN TEMP:  34; 6HR MAX TEMP:  47;

DICKINSON      CLEAR     33  25  72 SE7       29.99F
GARRISON         N/A     37  29  72 SE7       30.05S
6HR MIN TEMP:  36; 6HR MAX TEMP:  47;

HETTINGER ARPT PTCLDY    31  25  78 CALM      30.02F
$$

NDZ004>008-012>016-024-026-027-054-181300-
NORTHEAST NORTH DAKOTA

CITY           SKY/WX    TMP DP  RH WIND       PRES   REMARKS
GRAND FORKS    PTCLDY    32  26  78 E7        30.14S
GRND FRKS AFB  CLEAR     26  22  88 CALM      30.14S
DEVILS LAKE    CLEAR     37  28  70 SE12      30.10R
$$

NDZ022-023-025-028>030-036>039-047>053-181300-
SOUTHEAST NORTH DAKOTA

CITY           SKY/WX    TMP DP  RH WIND       PRES   REMARKS
FARGO          PTCLDY    37  24  59 NE5       30.10S
6HR MIN TEMP:  36; 6HR MAX TEMP:  49;

JAMESTOWN      MOCLDY    34  26  72 E7        30.07F
$$




USA.gov is the U.S. government's official web portal to all federal, state and local government web resources and services.